www.pogodaiklimat.ru

Погода и климат >> Архив погоды >> Германия >> Вестермаркельсдорф


ПОГОДА в Вестермаркельсдорфе

  • Прогноз погоды в Вестермаркельсдорфе
  • Монитор погоды в Вестермаркельсдорфе

АРХИВ ПОГОДЫ в Вестермаркельсдорфе

Время (UTC), дата Ветер
(напр.,м/с)
 
Видим.   Явления Облачность Т
(С)
Тd
(С)
f
(%)
Тe
(С)
Тes
(С)
Комфортность P
(гПа)
Po
(гПа)
Тmin
(С)
Tmax
(С)
R
(мм)
R24
(мм)
S
(см)
19 16.09 З 11 40 км 6/6 1050 м
[]
+14.4 +7.8 65 +12 +12 1015.8 1014.8
20 16.09 З 11 35 км 6/6 960 м
[]
+14.1 +8.1 67 +11 +11 1016.0 1015.0
21 16.09 З 11 35 км 8/8 870 м
[]
+14.0 +8.3 68 +11 +11 1015.5 1014.5
22 16.09 З 10-13
{13}
40 км 4/4 1500 м
[]
+13.7 +8.1 69 +11 +11 1015.4 1014.4
23 16.09 З 11-13
{13}
35 км 10/10 1500 м
[]
+13.7 +8.5 71 +11 +11 1014.8 1013.8
00 17.09 З 11 35 км 10/10 1500 м
[]
+13.8 +9.4 75 +11 +11 1014.6 1013.6
01 17.09 З 11 40 км 10/10 800 м
[]
+13.6 +8.7 72 +10 +10 1013.9 1012.9
02 17.09 З 12 45 км в посл. час дождь 9/9 1500 м
[]
+13.1 +8.9 76 +10 +10 1013.6 1012.6
03 17.09 З 11 50 км в посл. час дождь {морось} 10/10 1410 м
[]
+13.1 +8.4 73 +10 +10 1013.0 1012.0 0.0
04 17.09 З 11 14 км слаб. дождь 9/9 720 м
[]
+12.8 +9.7 81 +9 +9 1012.3 1011.3
05 17.09 З 15 35 км в посл. час дождь {морось} 10/10 750 м
[]
+12.9 +8.6 75 +9 +9 1011.8 1010.8
06 17.09 З 12 40 км в посл. час дождь {морось} 10/10 1000 м
[]
+12.3 +9.1 81 +8 +8 1011.5 1010.5 +12.0 +14.7 1
07 17.09 З 12 30 км 9/9 800 м
[]
+12.6 +8.6 77 +9 +9 1011.3 1010.3
08 17.09 СЗ 12 30 км 9/9 800 м
[]
+13.0 +6.9 66 +10 +10 1011.3 1010.3
09 17.09 З 13 28 км 10/10 1050 м
[]
+13.0 +6.6 65 +9 +9 1011.1 1010.1
10 17.09 СЗ 15 30 км 9/9 1050 м
[]
+11.7 +6.9 72 +7 +7 1011.2 1010.2
11 17.09 З 15 30 км в посл. час дождь {морось} 9/9 1020 м
[]
+12.5 +7.3 71 +8 +8 1010.4 1009.4
12 17.09 СЗ 20 17 км {дождь, морось} 6/6 1020 м
[]
+10.4 +4.8 68 +5 +5 1010.9 1009.9 0.2
13 17.09 З 14 30 км в посл. час дождь {морось} 9/9 1110 м
[]
+11.7 +6.4 70 +7 +7 1010.3 1009.3
14 17.09 З 18 30 км в посл. час дождь 9/9 1080 м
[]
+11.7 +6.4 70 +7 +7 1010.4 1009.4
15 17.09 СЗ 17 30 км в посл. час дождь {морось} 6/6 870 м
[]
+12.8 +6.5 65 +9 +9 1010.8 1009.8 0.5
16 17.09 З 18 29 км 9/9 1260 м
[]
+13.4 +6.5 63 +9 +9 1010.6 1009.6
17 17.09 СЗ 17 30 км 8/8 1140 м
[]
+13.0 +7.0 67 +9 +9 1011.2 1010.2
18 17.09 СЗ 18 35 км в посл. час дождь {морось} 4/4 1000 м
[]
+12.5 +6.1 65 +8 +8 1012.0 1011.0 +9.8 +13.7 0.0
19 17.09 СЗ 15 30 км в посл. час дождь {морось} 9/9 840 м
[]
+12.4 +7.6 73 +8 +8 1012.9 1011.9
20 17.09 СЗ 15-19
{20}
35 км ясно +12.3 +5.9 65 +8 +8 1014.1 1013.1
21 17.09 СЗ 13-16
{21}
45 км {дождь, морось} ясно +12.5 +6.7 68 +9 +9 1015.0 1014.0 0.0
22 17.09 СЗ 12-15
{16}
40 км ясно +12.3 +6.3 67 +9 +9 1015.6 1014.6
23 17.09 СЗ 11-14
{15}
35 км ясно +12.2 +7.1 71 +9 +9 1016.4 1015.4
00 18.09 СЗ 12 35 км {дождь, морось} ясно +12.3 +7.3 72 +9 +9 1016.7 1015.7
01 18.09 СЗ 12-15
{15}
35 км ясно +12.3 +7.4 72 +9 +9 1016.9 1015.9
02 18.09 СЗ 12-15
{15}
30 км ясно +12.3 +7.8 74 +8 +8 1017.2 1016.2
03 18.09 СЗ 13 30 км 4/4 720 м
[]
+12.4 +7.7 73 +8 +8 1017.6 1016.6
04 18.09 СЗ 13 30 км 10/10 720 м
[]
+12.4 +7.1 70 +9 +9 1017.9 1016.9
05 18.09 СЗ 14 28 км 8/8 720 м
[]
+11.9 +7.0 72 +8 +8 1018.4 1017.4
06 18.09 СЗ 14 26 км 9/9 600 м
[]
+12.0 +6.8 70 +8 +8 1019.1 1018.1 +11.8 +12.7 0.0
07 18.09 СЗ 15 30 км 4/4 900 м
[]
+12.0 +5.8 66 +8 +8 1019.8 1018.8
08 18.09 СЗ 14-17
{17}
25 км 3/3 1020 м
[]
+12.4 +5.7 64 +8 +8 1020.4 1019.4
09 18.09 СЗ 13 30 км 3/3 1080 м
[]
+12.6 +5.8 63 +9 +9 1020.8 1019.8
10 18.09 СЗ 12 35 км 6/6 1170 м
[]
+12.7 +6.2 65 +9 +9 1021.1 1020.1
11 18.09 СЗ 12 30 км 5/5 1050 м
[]
+13.1 +6.1 62 +10 +10 1021.1 1020.1
12 18.09 СЗ 12 29 км в посл. час морось 8/8 1020 м
[]
+13.7 +7.3 65 +11 +11 1021.1 1020.1 0.0
13 18.09 З 12-15
{15}
40 км 4/4 1500 м
[]
+13.7 +6.0 60 +11 +11 1021.1 1020.1
14 18.09 З 11-14
{17}
35 км в посл. час дождь {морось} 3/0
[]
+13.6 +7.2 65 +11 +11 1021.1 1020.1
15 18.09 СЗ 12 35 км {дождь, морось} 3/3 1230 м
[]
+13.9 +6.8 62 +11 +11 1021.2 1020.2 0.1
16 18.09 СЗ 14 30 км в посл. час дождь {морось} 9/9 1500 м
[]
+13.2 +7.6 69 +10 +10 1021.3 1020.3
17 18.09 СЗ 12 35 км в посл. час дождь 9/9 840 м
[]
+13.0 +8.1 72 +9 +9 1021.6 1020.6
18 18.09 СЗ 14 14 км слаб. дождь {морось} 9/9 600 м
[]
+12.4 +7.8 74 +8 +8 1021.9 1020.9 +11.2 +14.0 0.3
19 18.09 СЗ 14 35 км в посл. час дождь {морось} 5/5 750 м
[]
+12.6 +8.0 74 +9 +9 1022.3 1021.3
20 18.09 СЗ 11-14
{16}
30 км 3/3 660 м
[]
+12.8 +8.7 76 +9 +9 1022.5 1021.5
21 18.09 СЗ 12 35 км {дождь, морось} 4/4 660 м
[]
+12.5 +7.6 72 +9 +9 1022.8 1021.8 0.0
22 18.09 СЗ 11-13
{14}
30 км 1/1 600 м
[]
+12.2 +8.4 78 +8 +8 1023.1 1022.1
23 18.09 СЗ 10-12
{13}
30 км ясно +12.2 +8.7 79 +9 +9 1023.6 1022.6
00 19.09 СЗ 9 30 км {дождь, морось} 4/4 1000 м
[]
+12.3 +9.0 80 +9 +9 1023.8 1022.8
01 19.09 СЗ 8 29 км 5/5 420 м
[]
+12.0 +9.2 83 +9 +9 1023.8 1022.8
02 19.09 СЗ 8-10
{10}
26 км ясно +12.1 +9.3 83 +9 +9 1024.1 1023.1
03 19.09 СЗ 8 29 км 9/9 420 м
[]
+11.8 +9.0 83 +8 +8 1024.4 1023.4
04 19.09 СЗ 8 35 км 6/6 420 м
[]
+11.7 +8.7 82 +8 +8 1024.5 1023.5
05 19.09 СЗ 7 35 км 10/10 480 м
[]
+11.6 +8.3 80 +8 +8 1024.9 1023.9
06 19.09 СЗ 7 35 км 10/0
[]
+11.7 +7.7 76 +9 +9 1025.5 1024.5 +11.4 +13.1 0.0
07 19.09 СЗ 6-8
{8}
30 км 9/0
[]
+12.0 +7.6 74 +9 +10 1026.1 1025.1
08 19.09 СЗ 8-9
{9}
60 км 9/0
[]
+12.8 +7.8 72 +10 +10 1026.8 1025.8
09 19.09 СЗ 7 40 км 10/0
[]
+13.0 +7.5 69 +10 +11 1027.2 1026.2
10 19.09 СЗ 7 55 км 10/0
[]
+13.2 +7.8 70 +11 +12 1027.5 1026.5
11 19.09 СЗ 7 60 км 10/0
[]
+13.8 +8.3 69 +12 +13 1027.9 1026.9
12 19.09 З 8 35 км 10/0
[]
+13.6 +7.9 68 +11 +12 1028.1 1027.1
13 19.09 З 8 45 км 10/0
[]
+13.7 +7.9 68 +11 +12 1028.0 1027.0
14 19.09 З 7-8
{9}
45 км 10/0
[]
+14.2 +7.8 65 +12 +13 1027.6 1026.6
15 19.09 З 7 35 км 9/0
[]
+14.1 +7.3 64 +12 +12 1027.6 1026.6
16 19.09 З 7 50 км 10/0
[]
+14.0 +7.2 64 +12 +12 1027.6 1026.6
17 19.09 З 7 50 км 10/0
[]
+14.0 +7.1 63 +12 +12 1027.7 1026.7
18 19.09 СЗ 6 50 км 10/0
[]
+14.0 +6.8 62 +12 +12 1027.8 1026.8 +11.6 +14.3
19 19.09 СЗ 6 55 км 6/0
[]
+13.9 +6.5 61 +12 +12 1027.8 1026.8
20 19.09 СЗ 8 45 км 10/10 870 м
[]
+13.9 +7.8 67 +11 +11 1028.0 1027.0
21 19.09 СЗ 8 50 км 10/0
[]
+13.3 +8.2 71 +11 +11 1028.1 1027.1
22 19.09 СЗ 8 45 км 10/10 630 м
[]
+12.9 +8.3 74 +10 +10 1028.3 1027.3
23 19.09 СЗ 8 45 км 10/10 630 м
[]
+12.8 +8.6 76 +10 +10 1028.1 1027.1
00 20.09 СЗ 7 40 км 10/10 300 м
[]
+12.6 +8.6 77 +10 +10 1028.1 1027.1
01 20.09 СЗ 7 40 км 10/0
[]
+12.2 +8.2 77 +9 +9 1028.0 1027.0
02 20.09 СЗ 7 55 км 10/10 660 м
[]
+12.5 +7.8 73 +10 +10 1028.0 1027.0
03 20.09 СЗ 8 45 км 10/10 660 м
[]
+12.6 +8.1 74 +10 +10 1027.8 1026.8
04 20.09 СЗ 8 45 км в посл. час дождь 10/10 600 м
[]
+12.9 +9.0 77 +10 +10 1027.6 1026.6
05 20.09 СЗ 7-11
{11}
45 км в посл. час морось 9/9 630 м
[]
+12.5 +8.8 78 +10 +10 1026.9 1025.9
06 20.09 З 6 50 км в посл. час морось {дождь} 9/9 300 м
[]
+13.0 +9.5 79 +11 +11 1026.9 1025.9 +11.9 +14.1 0.0
07 20.09 З 8-10
{10}
40 км 9/9 500 м
[]
+13.0 +10.0 82 +10 +10 1027.1 1026.1
08 20.09 З 9 40 км в посл. час дождь {морось} 9/9 400 м
[]
+13.2 +10.8 85 +10 +10 1026.9 1025.9
09 20.09 З 8 13 км в посл. час дождь {морось} 10/10 210 м
[]
+13.0 +12.0 94 +10 +10 1027.4 1026.4 0.2
10 20.09 З 9 35 км в посл. час морось 10/10 210 м
[]
+13.9 +12.5 91 +11 +11 1027.2 1026.2
11 20.09 З 6 35 км в посл. час морось {дымка} 10/10 630 м
[]
+14.5 +12.3 87 +13 +13 1026.9 1025.9
12 20.09 З 7 40 км в посл. час морось {дождь} 9/9 720 м
[]
+15.4 +12.6 83 +14 +14 1026.7 1025.7 0.0
13 20.09 СЗ 6 40 км в посл. час дождь {морось} 10/10 360 м
[]
+14.9 +12.4 85 +13 +13 1026.3 1025.3
14 20.09 З 6-7
{8}
50 км 10/10 1050 м
[]
+15.3 +12.9 86 +14 +14 1025.7 1024.7
15 20.09 З 10 55 км {дождь, морось} 10/10 1080 м
[]
+15.4 +12.6 83 +13 +13 1025.0 1024.0 0.0
16 20.09 З 9-11
{11}
50 км 10/10 960 м
[]
+15.3 +12.7 84 +13 +13 1024.6 1023.6
17 20.09 З 10 40 км 10/10 660 м
[]
+15.1 +12.7 86 +13 +13 1024.4 1023.4
18 20.09 З 9 40 км в посл. час дождь {морось} 10/10 600 м
[]
+15.0 +12.9 87 +13 +13 1024.4 1023.4 +12.9 +16.2 0.0
19 20.09 З 7 40 км 6/6 500 м
[]
+15.0 +13.1 88 +13 +13 1024.5 1023.5
20 20.09 З 10 45 км 10/10 540 м
[]
+15.0 +12.8 87 +13 +13 1024.1 1023.1
21 20.09 З 10 30 км в посл. час морось 9/9 600 м
[]
+14.8 +12.8 88 +12 +12 1024.1 1023.1 0.0
22 20.09 З 9 35 км 9/9 500 м
[]
+14.6 +12.2 86 +12 +12 1023.8 1022.8
23 20.09 З 9-12
{12}
40 км 9/9 500 м
[]
+14.4 +11.7 84 +12 +12 1023.3 1022.3
00 21.09 З 9 45 км {морось} 9/9 300 м
[]
+14.2 +11.4 83 +12 +12 1023.4 1022.4
01 21.09 З 8-10
{11}
40 км 4/4 420 м
[]
+14.1 +11.7 85 +12 +12 1023.1 1022.1
02 21.09 З 8-10
{11}
35 км ясно +13.9 +11.8 87 +11 +11 1023.0 1022.0
03 21.09 З 9-11
{11}
35 км ясно +13.9 +11.8 87 +11 +11 1022.5 1021.5
04 21.09 З 9-11
{12}
30 км 9/9 270 м
[]
+13.7 +12.1 90 +11 +11 1022.2 1021.2
05 21.09 З 8-10
{11}
30 км 9/9 270 м
[]
+13.7 +12.0 89 +11 +11 1021.8 1020.8
06 21.09 З 9 35 км 9/9 200 м
[]
+13.4 +11.6 89 +10 +10 1022.1 1021.1 +13.4 +15.1 0.0
07 21.09 З 9-11
{11}
30 км 10/10 210 м
[]
+13.5 +11.8 89 +11 +11 1022.3 1021.3
08 21.09 З 8-11
{11}
30 км 10/10 210 м
[]
+13.8 +12.0 89 +11 +11 1022.4 1021.4
09 21.09 З 7 28 км 8/8 240 м
[]
+14.6 +12.4 87 +13 +13 1022.3 1021.3
10 21.09 З 7-9
{10}
28 км 6/6 270 м
[]
+14.8 +12.0 83 +13 +14 1022.1 1021.1
11 21.09 З 7-8
{9}
30 км 10/10 300 м
[]
+15.4 +12.4 82 +14 +14 1022.1 1021.1
12 21.09 З 5 22 км 10/10 270 м
[]
+15.8 +12.7 82 +15 +15 1022.1 1021.1
13 21.09 З 3-4
{6}
30 км ясно +16.2 +12.7 80 +16 +21 1021.6 1020.6
14 21.09 З 2-2
{4}
26 км ясно +16.4 +12.6 78 +17 +20 1021.0 1020.0
15 21.09 СЗ 1 30 км 10/0
[]
+16.8 +11.5 71 +18 +19 1020.3 1019.3
16 21.09 С 1-1
{2}
40 км 5/0
[]
+17.4 +10.8 65 +18 +19 1019.8 1018.8
17 21.09 В 1-1
{2}
40 км ясно +16.2 +10.5 69 +17 +17 1019.8 1018.8
18 21.09 ЮВ 2 35 км ясно +14.2 +11.2 82 +14 +14 1019.6 1018.6 +13.3 +17.5
19 21.09 ЮВ 2-3
{3}
30 км ясно +13.3 +11.0 86 +13 +13 1019.3 1018.3
20 21.09 ЮВ 3-3
{3}
16 км ясно +12.8 +11.6 92 +11 +11 1019.0 1018.0
21 21.09 ЮВ 3-3
{3}
14 км ясно +12.6 +11.5 93 +11 +11 1018.7 1017.7
22 21.09 ЮВ 3-3
{3}
7000 м дымка ясно +12.1 +11.3 95 +10 +10 1018.2 1017.2
23 21.09 ЮВ 2-2
{4}
7000 м дымка ясно +11.6 +10.9 95 +10 +10 1018.1 1017.1
00 22.09 Ю 3 13 км 8/0
[]
+12.7 +12.0 96 +11 +11 1017.9 1016.9
01 22.09 ЮВ 2-2
{4}
8000 м ясно +11.8 +11.0 95 +11 +11 1017.3 1016.3
02 22.09 В 2-3
{3}
3500 м в посл. час туман {дымка} 4/0
[]
+11.2 +10.9 98 +10 +10 1017.0 1016.0
03 22.09 ЮВ 3-3
{4}
3900 м в посл. час туман {дымка} ясно +10.9 +10.6 98 +9 +9 1016.5 1015.5
04 22.09 ЮВ 2-3
{3}
7000 м дымка ясно +10.7 +10.4 98 +9 +9 1016.0 1015.0
05 22.09 ЮВ 2-3
{3}
14 км ясно +10.9 +10.6 98 +9 +9 1015.8 1014.8
06 22.09 ЮВ 3 9000 м {туман, дымка} ясно +11.4 +10.9 97 +9 +10 1015.6 1014.6 +10.0 +14.5 0.0
07 22.09 ЮВ 2-3
{3}
30 км ясно +14.2 +12.4 89 +14 +15 1015.6 1014.6
08 22.09 В 4-5
{5}
40 км ясно +17.4 +12.6 73 +17 +19 1015.2 1014.2
09 22.09 ЮВ 4 65 км ясно +19.1 +11.0 59 +20 +23 1015.0 1014.0
10 22.09 ЮВ 5-8
{8}
55 км ясно +19.8 +8.7 49 +21 +24 комфорт 1014.3 1013.3
11 22.09 ЮВ 5-7
{7}
50 км ясно +20.4 +9.2 49 +22 +25 комфорт 1014.0 1013.0
12 22.09 ЮВ 6-8
{8}
>70 км ясно +20.5 +10.0 51 +22 +24 комфорт 1013.4 1012.4
13 22.09 В 6-8
{8}
40 км ясно +18.7 +12.2 66 +19 +21 1013.1 1012.1
14 22.09 В 6-8
{9}
40 км ясно +18.9 +11.9 64 +19 +21 1012.4 1011.4
15 22.09 В 7-9
{9}
60 км ясно +18.5 +11.4 63 +18 +19 1012.0 1011.0
16 22.09 В 5-7
{8}
55 км ясно +17.3 +12.5 73 +17 +17 1011.9 1010.9
17 22.09 В 6-7
{8}
45 км ясно +16.1 +12.7 80 +15 +15 1011.7 1010.7
18 22.09 В 6 45 км ясно +15.8 +13.0 83 +14 +14 1011.6 1010.6 +11.4 +20.9
19 22.09 В 6-8
{8}
50 км 9/0
[]
+16.1 +12.5 79 +15 +15 1012.0 1011.0
20 22.09 В 6-10
{10}
45 км 9/0
[]
+15.8 +12.1 79 +14 +14 1012.2 1011.2
21 22.09 В 7 35 км 10/0
[]
+15.2 +11.9 81 +13 +13 1012.4 1011.4
22 22.09 В 6 30 км 10/0
[]
+15.0 +12.5 85 +13 +13 1012.8 1011.8
23 22.09 В 7 30 км 10/0
[]
+14.8 +12.6 87 +13 +13 1012.9 1011.9
00 23.09 В 8 35 км ясно +14.8 +12.8 88 +13 +13 1013.1 1012.1
01 23.09 В 8-11
{13}
14 км 4/0
[]
+14.8 +13.7 93 +13 +13 1013.1 1012.1
02 23.09 В 8-13
{13}
19 км 9/9 210 м
[]
+14.6 +13.5 93 +12 +12 1013.2 1012.2
03 23.09 В 7 22 км 9/9 210 м
[]
+14.5 +13.4 93 +12 +12 1013.3 1012.3
04 23.09 В 7 25 км 9/9 210 м
[]
+14.4 +13.3 93 +12 +12 1013.2 1012.2
05 23.09 В 7-10
{13}
27 км 10/10 210 м
[]
+14.5 +13.3 93 +12 +12 1013.4 1012.4
06 23.09 В 6 21 км 9/9 200 м
[]
+14.5 +13.3 93 +13 +13 1013.7 1012.7 +14.3 +16.1
07 23.09 В 7-12
{12}
19 км 9/9 210 м
[]
+14.8 +13.4 91 +13 +13 1013.9 1012.9
08 23.09 В 9-13
{13}
20 км 9/9 210 м
[]
+15.3 +13.2 87 +13 +13 1014.2 1013.2
09 23.09 В 9 20 км 6/6 210 м
[]
+15.8 +13.2 85 +14 +14 1014.4 1013.4
10 23.09 В 9 21 км 9/9 270 м
[]
+16.2 +13.1 82 +14 +15 1014.5 1013.5
11 23.09 В 9 19 км 10/0
[]
+16.6 +13.0 79 +15 +15 1014.3 1013.3
12 23.09 В 8-11
{14}
24 км 6/0
[]
+16.9 +13.0 78 +16 +16 1014.2 1013.2
13 23.09 В 8-11
{12}
21 км 10/0
[]
+16.7 +12.9 78 +15 +16 1014.1 1013.1
14 23.09 В 8 30 км 8/0
[]
+17.1 +13.4 79 +16 +16 1014.2 1013.2
15 23.09 В 8 30 км 9/0
[]
+16.3 +13.0 81 +15 +15 1014.1 1013.1
16 23.09 В 8 30 км 10/0
[]
+15.9 +13.0 83 +14 +14 1014.1 1013.1
17 23.09 В 7 29 км 10/0
[]
+15.2 +13.0 87 +13 +13 1014.4 1013.4
18 23.09 В 7 23 км 10/0
[]
+15.0 +13.2 89 +13 +13 1014.6 1013.6 +14.4 +17.3
19 23.09 В 6-9
{10}
19 км 4/0
[]
+14.8 +13.3 91 +13 +13 1014.8 1013.8

 

Местоположение метеостанции Вестермаркельсдорф (Германия): широта 54.53 долгота 11.07 высота над уровнем моря 9 м.

В архиве по умолчанию представлена погода в Вестермаркельсдорфе за последнюю неделю. Архивные данные за месяц целиком и за предыдущие месяцы, начиная с января 2011 года, Вы можете получить, выбрав интересующий диапазон дат из раскрывающегося списка и нажав кнопку "Ввод!".


*Определитесь, кто Вы:
робот инопланетянин человек

Внимание! Время в таблицах - всемирное. Для получения местного времени необходимо прибавить поправку, которая равна 1 ч.

Смотрите также архив погоды в соседних городах и на ближайших метеорологических станциях:

Погода в Мариенлойхте (Германия) (11 км)
Погода в Ланго (Дания) (33 км)
Погода в Абеде (Дания) (37 км)
Погода в Киль маяке (Германия) (51 км)
Погода в Пельцерхакене (Германия) (52 км)
Погода в Гедсер Одде (Дания) (58 км)
Погода в Больтенхагене (Германия) (60 км)
Погода в Дёрнике (Германия) (61 км)
Погода в Киле (Германия) (62 км)
Погода в Тосинге (Дания) (63 км)

Пояснения к столбцам:

Ветер - указаны скорость ветра в м/с - средняя за 10 мин, порывы в срок и между сроками (в фигурных скобках) и направление, откуда дует ветер: С - северный, СВ - северо-восточный, В - восточный, ЮВ - юго-восточный, Ю - южный, ЮЗ - юго-западный, З - западный, СЗ - северо-западный.
Видимость - горизонтальная дальность видимости в метрах или километрах. При видимости от 1 до 10 км при отсутствии осадков обычно наблюдается дымка, при ухудшении видимости до 1 км и менее - туман. В сухую погоду видимость может ухудшаться дымом, пылью или мглою.
Явления - указаны атмосферные явления, наблюдавшиеся в срок или в последний час перед сроком; фигурными скобками обозначены явления, наблюдавшиеся между сроками (за 1-3 часа до срока); квадратными скобками обозначены град или гололедные отложения с указанием их диаметра в мм.
Облачность - указаны через наклонную черту общая и нижняя облачность в баллах и высота нижней границы облаков в метрах; квадратными скобками обозначены формы облаков: Ci - перистые, Cs - перисто-слоистые, Cc - перисто-кучевые, Ac - высококучевые, As - высокослоистые, Sc - слоисто-кучевые, Ns - слоисто-дождевые, Cu - кучевые, Cb - кучево-дождевые. Подробнее классификацию облаков см. в Атласе облаков (PDF).
T - Температура воздуха - температура, измеренная на высоте 2 м над землей.
Td - Температура точки росы - температура, при понижении до которой содержащийся в воздухе водяной пар достигнет насыщения.
f - Относительная влажность воздуха - влажноcть воздуха, измеренная на высоте 2 м над землей.
Te - Эффективная температура - температура, которую ощущает одетый по сезону человек в тени. Характеристика душности погоды. При расчете учитывается влияние влажности воздуха и скорости ветра на теплоощущения человека.
Tes - Эффективная температура на солнце - температура, которую ощущает человек, с поправкой на солнечный нагрев. Характеристика знойности погоды. Зависит от высоты солнца над горизонтом, облачности и скорости ветра. Ночью, в пасмурную погоду, а также при ветре 12 м/с и более поправка равна нулю.
P - Атмосферное давление - приведенное к уровню моря атмосферное давление.
Po - Атмосферное давление - измеренное на уровне метеостанции атмосферное давление.
Tmin - Минимальная температура - минимум температуры воздуха на высоте 2 м над землей.
Tmax - Максимальная температура - максимум температуры воздуха на высоте 2 м над землей.
R - Количество осадков - Количество выпавших осадков за период времени, мм. При наведении курсора мыши на число - период времени, за который выпало указанное количество осадков.
R24 - Количество осадков - Количество выпавших осадков за 24 часа, мм.
S - Снежный покров - Высота снежного покрова, см. При наведении курсора мыши на число - состояние снежного покрова и степень покрытия местности в баллах.